UAL340 KATL-KDEN

Flight info

Callsign UAL340
Flight time N/A
Altitude 34000
Route CUTTN2 HANKO MEM PER GCK KIISS CLASH5
Aircraft B752/M-SDE2E3FGHIJ3J4J7RWXY/LB1

Departure

Time N/A
Airport Hartsfield Jackson Atlanta International Airport (KATL)

Arrival

Time 2026-05-03 23:31
Airport Denver International Airport (KDEN)
Time Latitude Longitude Altitude Speed Heading
2026-05-03 23:10 38.84558 -102.77210 34144 ft 417 kts 299°
2026-05-03 23:10 38.86055 -102.80335 33364 ft 417 kts 299°
2026-05-03 23:10 38.87570 -102.83499 32588 ft 421 kts 299°
2026-05-03 23:11 38.89123 -102.86746 31876 ft 424 kts 299°
2026-05-03 23:11 38.90651 -102.89945 31310 ft 426 kts 299°
2026-05-03 23:11 38.92216 -102.93223 30811 ft 428 kts 299°
2026-05-03 23:11 38.93765 -102.96468 30360 ft 431 kts 299°
2026-05-03 23:12 38.95337 -102.99760 29910 ft 434 kts 300°
2026-05-03 23:12 38.96933 -103.03053 29235 ft 440 kts 300°
2026-05-03 23:12 38.98557 -103.06405 28583 ft 437 kts 300°
2026-05-03 23:12 39.00142 -103.09680 27979 ft 429 kts 300°
2026-05-03 23:13 39.01686 -103.12875 27317 ft 423 kts 300°
2026-05-03 23:13 39.03240 -103.16094 26681 ft 417 kts 300°
2026-05-03 23:13 39.04733 -103.19198 26118 ft 413 kts 300°
2026-05-03 23:13 39.06233 -103.22357 25628 ft 411 kts 300°
2026-05-03 23:14 39.07724 -103.25498 25162 ft 412 kts 300°
2026-05-03 23:14 39.09218 -103.28648 24690 ft 410 kts 300°
2026-05-03 23:14 39.10680 -103.31732 24215 ft 407 kts 300°
2026-05-03 23:14 39.12150 -103.34837 23751 ft 403 kts 300°
2026-05-03 23:15 39.13604 -103.37911 23303 ft 401 kts 300°
2026-05-03 23:15 39.15039 -103.40949 22881 ft 400 kts 300°
2026-05-03 23:15 39.16488 -103.44018 22451 ft 400 kts 300°
2026-05-03 23:15 39.17932 -103.47082 22013 ft 400 kts 300°
2026-05-03 23:16 39.19361 -103.50113 21569 ft 397 kts 300°
2026-05-03 23:16 39.20782 -103.53134 21198 ft 395 kts 300°
2026-05-03 23:16 39.22212 -103.56173 20802 ft 396 kts 300°
2026-05-03 23:16 39.23631 -103.59193 20389 ft 396 kts 300°
2026-05-03 23:17 39.26002 -103.64248 19777 ft 379 kts 300°
2026-05-03 23:17 39.28445 -103.69458 19846 ft 349 kts 300°
2026-05-03 23:17 39.31189 -103.74709 19229 ft 364 kts 303°
2026-05-03 23:17 39.33943 -103.79903 18343 ft 355 kts 303°
2026-05-03 23:18 39.36639 -103.85005 17716 ft 344 kts 303°
2026-05-03 23:18 39.39335 -103.90119 17084 ft 357 kts 303°
2026-05-03 23:18 39.41278 -103.93809 16593 ft 347 kts 303°
2026-05-03 23:18 39.42606 -103.96336 16592 ft 329 kts 302°
2026-05-03 23:19 39.43571 -103.98910 16585 ft 311 kts 285°
2026-05-03 23:19 39.43870 -104.02401 16314 ft 308 kts 270°
2026-05-03 23:19 39.43807 -104.07949 15566 ft 310 kts 268°
2026-05-03 23:19 39.43659 -104.13496 14844 ft 303 kts 268°
2026-05-03 23:20 39.43563 -104.16487 14456 ft 300 kts 268°
2026-05-03 23:20 39.43474 -104.19155 14119 ft 297 kts 268°
2026-05-03 23:20 39.43383 -104.21810 13782 ft 297 kts 268°
2026-05-03 23:20 39.43289 -104.24464 13456 ft 297 kts 268°
2026-05-03 23:21 39.43193 -104.27160 13174 ft 296 kts 268°
2026-05-03 23:21 39.43099 -104.29742 13161 ft 282 kts 268°
2026-05-03 23:21 39.43010 -104.32194 13144 ft 268 kts 268°
2026-05-03 23:21 39.42923 -104.34566 13115 ft 255 kts 268°
2026-05-03 23:22 39.42760 -104.39019 12620 ft 249 kts 268°
2026-05-03 23:22 39.42678 -104.41248 12362 ft 247 kts 268°
2026-05-03 23:22 39.42596 -104.43472 12101 ft 242 kts 268°
2026-05-03 23:23 39.42526 -104.45581 12149 ft 234 kts 268°
2026-05-03 23:23 39.42453 -104.47768 12145 ft 250 kts 268°
2026-05-03 23:23 39.42378 -104.50074 11683 ft 266 kts 270°
2026-05-03 23:23 39.42716 -104.52430 11140 ft 272 kts 296°
2026-05-03 23:24 39.43619 -104.54501 11104 ft 257 kts 299°
2026-05-03 23:24 39.44476 -104.56466 11072 ft 244 kts 299°
2026-05-03 23:24 39.45296 -104.58320 11050 ft 235 kts 300°
2026-05-03 23:24 39.46124 -104.60175 11054 ft 239 kts 300°
2026-05-03 23:25 39.46967 -104.62051 11061 ft 244 kts 300°
2026-05-03 23:25 39.47827 -104.63955 11061 ft 245 kts 301°
2026-05-03 23:25 39.48940 -104.65414 11752 ft 225 kts 330°
2026-05-03 23:25 39.50512 -104.66026 11734 ft 254 kts 352°
2026-05-03 23:26 39.52362 -104.66171 11318 ft 270 kts 355°
2026-05-03 23:26 39.54228 -104.66254 11019 ft 268 kts 356°
2026-05-03 23:26 39.56111 -104.66316 10491 ft 276 kts 356°
2026-05-03 23:26 39.58030 -104.66361 10272 ft 270 kts 358°
2026-05-03 23:27 39.59888 -104.66328 9954 ft 269 kts 358°
2026-05-03 23:27 39.61772 -104.66308 9582 ft 269 kts 358°
2026-05-03 23:27 39.63610 -104.66285 9422 ft 261 kts 358°
2026-05-03 23:27 39.65399 -104.66263 9248 ft 254 kts 358°
2026-05-03 23:28 39.67146 -104.66241 9019 ft 244 kts 358°
2026-05-03 23:28 39.68811 -104.66221 8638 ft 237 kts 357°
2026-05-03 23:28 39.70451 -104.66201 8212 ft 232 kts 358°
2026-05-03 23:28 39.72049 -104.66183 7735 ft 230 kts 357°
2026-05-03 23:29 39.73644 -104.66164 7262 ft 228 kts 358°
2026-05-03 23:29 39.75212 -104.66152 6959 ft 218 kts 356°
2026-05-03 23:29 39.76674 -104.66129 6658 ft 202 kts 356°
2026-05-03 23:29 39.78022 -104.66116 6389 ft 184 kts 357°
2026-05-03 23:30 39.79250 -104.66089 6102 ft 168 kts 356°
2026-05-03 23:30 39.80351 -104.66091 5883 ft 149 kts 353°
2026-05-03 23:30 39.81358 -104.66075 5700 ft 142 kts 356°
2026-05-03 23:30 39.82365 -104.66067 5552 ft 149 kts 356°
2026-05-03 23:31 39.83416 -104.66047 5427 ft 149 kts 355°
2026-05-03 23:31 39.84287 -104.66049 5410 ft 103 kts
2026-05-03 23:31 39.84865 -104.66037 5408 ft 59 kts 358°
2026-05-03 23:31 39.85186 -104.66088 5418 ft 31 kts 336°
2026-05-03 23:32 39.85316 -104.66174 5424 ft 5 kts 331°
2026-05-03 23:32 39.85318 -104.66175 5424 ft 0 kts 331°
2026-05-03 23:32 39.85320 -104.66177 5424 ft 1 kts 331°
2026-05-03 23:32 39.85329 -104.66183 5425 ft 1 kts 331°
2026-05-03 23:33 39.85345 -104.66194 5425 ft 2 kts 330°
2026-05-03 23:33 39.85356 -104.66203 5426 ft 2 kts 328°
2026-05-03 23:33 39.85377 -104.66219 5426 ft 3 kts 332°
2026-05-03 23:33 39.85403 -104.66232 5427 ft 3 kts 341°
2026-05-03 23:34 39.85436 -104.66235 5429 ft 8 kts
2026-05-03 23:34 39.85522 -104.66235 5432 ft 14 kts 359°
2026-05-03 23:34 39.85576 -104.66269 5434 ft 6 kts 301°
2026-05-03 23:34 39.85583 -104.66320 5435 ft 7 kts 277°
2026-05-03 23:35 39.85586 -104.66403 5435 ft 10 kts 269°
2026-05-03 23:35 39.85584 -104.66524 5433 ft 15 kts 269°
2026-05-03 23:35 39.85586 -104.66689 5431 ft 19 kts 271°
2026-05-03 23:35 39.85587 -104.66860 5428 ft 18 kts 271°
2026-05-03 23:36 39.85590 -104.67028 5424 ft 18 kts 270°
2026-05-03 23:36 39.85590 -104.67201 5419 ft 20 kts 270°
2026-05-03 23:36 39.85591 -104.67390 5408 ft 16 kts 271°
2026-05-03 23:36 39.85537 -104.67482 5399 ft 14 kts 187°
2026-05-03 23:37 39.85452 -104.67491 5397 ft 7 kts 185°
2026-05-03 23:37 39.85437 -104.67493 5396 ft 0 kts 186°